This is the latest recevied weather packets stored in our database for station/object K7NDG. If no packets are shown the sender has not sent any weather packets the latest 10 day(s).
| Time | Temp. | Humidity | Pressure | Rain* | Wind** | Luminosity | Snow |
|---|---|---|---|---|---|---|---|
| 1777219309 | 7.78° C | 91% | 1011 hPa | 0 mm | - | 143 W/m² | - |
| 1777219004 | 7.78° C | 91% | 1011 hPa | 0 mm | - | 144 W/m² | - |
| 1777218700 | 7.78° C | 92% | 1011 hPa | 0 mm | - | 146 W/m² | - |
| 1777218396 | 7.78° C | 93% | 1010.9 hPa | 0 mm | - | 153 W/m² | - |
| 1777218092 | 7.78° C | 93% | 1010.8 hPa | 0 mm | - | 153 W/m² | - |
| 1777217788 | 7.22° C | 93% | 1010.9 hPa | 0 mm | - | 157 W/m² | - |
| 1777217484 | 6.67° C | 93% | 1010.8 hPa | 0 mm | - | 236 W/m² | - |
| 1777217180 | 6.67° C | 93% | 1010.8 hPa | 0 mm | - | 86 W/m² | - |
| 1777216877 | 6.67° C | 93% | 1010.9 hPa | 0 mm | - | 104 W/m² | - |
| 1777216574 | 6.67° C | 93% | 1010.8 hPa | 0 mm | - | 77 W/m² | - |
| 1777216270 | 6.67° C | 94% | 1010.9 hPa | 0 mm | - | 78 W/m² | - |
| 1777215968 | 6.11° C | 93% | 1010.8 hPa | 0 mm | - | 78 W/m² | - |
| 1777215664 | 6.11° C | 93% | 1010.8 hPa | 0 mm | - | 62 W/m² | - |
| 1777215358 | 6.11° C | 93% | 1010.7 hPa | 0 mm | - | 59 W/m² | - |
| 1777215056 | 6.11° C | 93% | 1010.7 hPa | 0 mm | - | 53 W/m² | - |
| 1777214756 | 6.11° C | 93% | 1010.7 hPa | 0 mm | - | 51 W/m² | - |
| 1777214455 | 6.11° C | 93% | 1010.7 hPa | 0 mm | - | 53 W/m² | - |
| 1777214150 | 5.56° C | 93% | 1010.7 hPa | 0 mm | - | 49 W/m² | - |
| 1777213845 | 5.56° C | 93% | 1010.6 hPa | 0 mm | - | 40 W/m² | - |
| 1777213540 | 5.56° C | 94% | 1010.7 hPa | 0 mm | - | 35 W/m² | - |
| 1777213237 | 5.56° C | 93% | 1010.7 hPa | 0 mm | - | 33 W/m² | - |
| 1777212933 | 5.56° C | 93% | 1010.4 hPa | 0 mm | - | 29 W/m² | - |
| 1777212632 | 5.56° C | 93% | 1010.4 hPa | 0 mm | - | 22 W/m² | - |
| 1777212329 | 5.56° C | 93% | 1010.6 hPa | 0 mm | - | 23 W/m² | - |
| 1777212026 | 5.56° C | 93% | 1010.4 hPa | 0 mm | - | 16 W/m² | - |
* Rain latest hour (hover to see other rain measurements)
** Current wind speed in m/s (hover to see current wind gust speed)